Hourly Weather Goroka

Today, 8 August, Saturday

Time Temperature Precipitation Wind Pressure Humidity
00:00 +15°C° 0 mm 0 mps 623 mmHg 94%
01:00 +15°C° 0 mm 0 mps 623 mmHg 94%
02:00 +14°C° 0 mm 0 mps 623 mmHg 94%
03:00 +14°C° 0 mm 0 mps 623 mmHg 94%
04:00 +15°C° 0 mm 1 mps 622 mmHg 94%
05:00 +15°C° 0 mm 1 mps 623 mmHg 93%
06:00 +15°C° 0 mm 1 mps 623 mmHg 92%
07:00 +15°C° 0 mm 1 mps 623 mmHg 91%
08:00 +19°C° 0 mm 1 mps 624 mmHg 84%
09:00 +21°C° 0 mm 1 mps 625 mmHg 76%
10:00 +24°C° 0 mm 1 mps 626 mmHg 66%
11:00 +25°C° 0.4 mm 1 mps 626 mmHg 66%
12:00 +25°C° 0.4 mm 1 mps 626 mmHg 65%
13:00 +26°C° 0.4 mm 1 mps 625 mmHg 65%
14:00 +25°C° 1.3 mm 1 mps 625 mmHg 72%
15:00 +22°C° 1.3 mm 0 mps 624 mmHg 79%
16:00 +21°C° 1.3 mm 0 mps 623 mmHg 86%
17:00 +19°C° 1.2 mm 0 mps 623 mmHg 89%
18:00 +18°C° 1.2 mm 0 mps 623 mmHg 92%
19:00 +17°C° 1.2 mm 0 mps 624 mmHg 95%
20:00 +17°C° 1 mm 0 mps 624 mmHg 96%
21:00 +17°C° 1 mm 0 mps 624 mmHg 97%
22:00 +17°C° 1 mm 0 mps 625 mmHg 97%
23:00 +16°C° 0.5 mm 0 mps 625 mmHg 97%

Tomorrow, 9 August, Sunday

Time Temperature Precipitation Wind Pressure Humidity
00:00 +16°C° 0.5 mm 0 mps 624 mmHg 98%
01:00 +16°C° 0.5 mm 0 mps 624 mmHg 98%
02:00 +16°C° 0.4 mm 0 mps 624 mmHg 98%
03:00 +16°C° 0.4 mm 0 mps 624 mmHg 98%
04:00 +15°C° 0.4 mm 0 mps 624 mmHg 98%
05:00 +15°C° 1.8 mm 0 mps 624 mmHg 98%
06:00 +16°C° 1.8 mm 0 mps 624 mmHg 98%
07:00 +16°C° 1.8 mm 0 mps 624 mmHg 98%
08:00 +16°C° 0.9 mm 0 mps 624 mmHg 97%
09:00 +16°C° 0.9 mm 0 mps 625 mmHg 97%
10:00 +17°C° 0.9 mm 0 mps 625 mmHg 96%
11:00 +20°C° 0.1 mm 1 mps 625 mmHg 88%
12:00 +22°C° 0.1 mm 1 mps 625 mmHg 80%
13:00 +23°C° 0.1 mm 1 mps 625 mmHg 72%
14:00 +24°C° 0.2 mm 1 mps 625 mmHg 70%
15:00 +24°C° 0.2 mm 1 mps 625 mmHg 67%
16:00 +24°C° 0.2 mm 2 mps 625 mmHg 65%
17:00 +22°C° 0.2 mm 1 mps 624 mmHg 75%
18:00 +20°C° 0.2 mm 1 mps 624 mmHg 86%
19:00 +18°C° 0.2 mm 1 mps 624 mmHg 96%
20:00 +18°C° 0 mm 1 mps 624 mmHg 96%
21:00 +15°C° 0 mm 0 mps 624 mmHg 96%
22:00 +15°C° 0 mm 0 mps 625 mmHg 95%
23:00 +15°C° 0 mm 0 mps 624 mmHg 95%

Day after tomorrow, 10 August, Monday

Time Temperature Precipitation Wind Pressure Humidity
00:00 +14°C° 0 mm 0 mps 624 mmHg 95%
01:00 +14°C° 0 mm 0 mps 624 mmHg 94%
02:00 +14°C° 0 mm 0 mps 623 mmHg 94%
03:00 +14°C° 0 mm 0 mps 623 mmHg 93%
04:00 +14°C° 0 mm 0 mps 623 mmHg 93%
05:00 +14°C° 0 mm 0 mps 623 mmHg 93%
06:00 +14°C° 0 mm 0 mps 623 mmHg 93%
07:00 +14°C° 0 mm 0 mps 624 mmHg 93%
08:00 +17°C° 0 mm 0 mps 625 mmHg 83%
09:00 +20°C° 0 mm 0 mps 626 mmHg 73%
10:00 +22°C° 0 mm 0 mps 627 mmHg 63%
11:00 +25°C° 0.2 mm 1 mps 627 mmHg 62%
12:00 +26°C° 0.2 mm 1 mps 626 mmHg 61%
13:00 +26°C° 0.2 mm 1 mps 626 mmHg 60%
14:00 +25°C° 0.8 mm 1 mps 625 mmHg 67%
15:00 +24°C° 0.8 mm 1 mps 625 mmHg 75%
16:00 +23°C° 0.8 mm 1 mps 624 mmHg 82%
17:00 +22°C° 1 mm 1 mps 624 mmHg 87%
18:00 +20°C° 1 mm 1 mps 624 mmHg 92%
19:00 +19°C° 1 mm 1 mps 624 mmHg 96%
20:00 +16°C° 0.4 mm 0 mps 624 mmHg 96%
21:00 +16°C° 0.4 mm 0 mps 625 mmHg 96%
22:00 +16°C° 0.4 mm 0 mps 625 mmHg 96%
23:00 +15°C° 0 mm 0 mps 625 mmHg 97%

11 August, Tuesday

Time Temperature Precipitation Wind Pressure Humidity
00:00 +15°C° 0 mm 0 mps 624 mmHg 97%
01:00 +15°C° 0 mm 0 mps 624 mmHg 97%
02:00 +15°C° 0 mm 0 mps 624 mmHg 97%
03:00 +15°C° 0 mm 0 mps 624 mmHg 97%
04:00 +14°C° 0 mm 0 mps 623 mmHg 96%
05:00 +14°C° 0 mm 0 mps 624 mmHg 96%
06:00 +14°C° 0 mm 0 mps 624 mmHg 96%
07:00 +14°C° 0 mm 0 mps 624 mmHg 96%
08:00 +17°C° 0 mm 0 mps 625 mmHg 87%
09:00 +20°C° 0 mm 0 mps 626 mmHg 78%
10:00 +22°C° 0 mm 0 mps 627 mmHg 69%
11:00 +24°C° 0.7 mm 1 mps 627 mmHg 70%
12:00 +24°C° 0.7 mm 1 mps 626 mmHg 72%
13:00 +24°C° 0.7 mm 1 mps 625 mmHg 74%
14:00 +24°C° 1.3 mm 1 mps 625 mmHg 79%
15:00 +23°C° 1.3 mm 1 mps 624 mmHg 83%
16:00 +22°C° 1.3 mm 1 mps 624 mmHg 88%
17:00 +21°C° 1 mm 1 mps 624 mmHg 91%
18:00 +18°C° 1 mm 0 mps 624 mmHg 94%
19:00 +17°C° 1 mm 0 mps 624 mmHg 97%
20:00 +16°C° 0.4 mm 0 mps 624 mmHg 97%
21:00 +16°C° 0.4 mm 0 mps 625 mmHg 97%
22:00 +15°C° 0.4 mm 0 mps 625 mmHg 97%
23:00 +15°C° 0 mm 0 mps 625 mmHg 97%

12 August, Wednesday

Time Temperature Precipitation Wind Pressure Humidity
00:00 +15°C° 0 mm 0 mps 624 mmHg 97%
01:00 +14°C° 0 mm 0 mps 624 mmHg 97%
02:00 +14°C° 0 mm 0 mps 624 mmHg 97%
03:00 +14°C° 0 mm 0 mps 623 mmHg 96%
04:00 +14°C° 0 mm 0 mps 623 mmHg 96%
05:00 +14°C° 0 mm 0 mps 623 mmHg 96%
06:00 +14°C° 0 mm 0 mps 624 mmHg 95%
07:00 +14°C° 0 mm 0 mps 624 mmHg 95%
08:00 +17°C° 0 mm 0 mps 625 mmHg 85%
09:00 +19°C° 0 mm 0 mps 626 mmHg 74%
10:00 +22°C° 0 mm 0 mps 627 mmHg 64%
11:00 +25°C° 0.2 mm 1 mps 627 mmHg 62%
12:00 +26°C° 0.2 mm 1 mps 627 mmHg 59%
13:00 +27°C° 0.2 mm 1 mps 626 mmHg 57%
14:00 +26°C° 0.9 mm 1 mps 626 mmHg 66%
15:00 +24°C° 0.9 mm 1 mps 625 mmHg 75%
16:00 +23°C° 0.9 mm 1 mps 624 mmHg 84%
17:00 +22°C° 0.8 mm 1 mps 624 mmHg 88%
18:00 +18°C° 0.8 mm 0 mps 624 mmHg 92%
19:00 +17°C° 0.8 mm 0 mps 624 mmHg 96%
20:00 +16°C° 0.2 mm 0 mps 624 mmHg 96%
21:00 +16°C° 0.2 mm 0 mps 624 mmHg 97%
22:00 +15°C° 0.2 mm 0 mps 624 mmHg 97%
23:00 +15°C° 0 mm 0 mps 624 mmHg 97%

13 August, Thursday

Time Temperature Precipitation Wind Pressure Humidity
00:00 +15°C° 0 mm 0 mps 624 mmHg 97%
01:00 +14°C° 0 mm 0 mps 623 mmHg 96%
02:00 +14°C° 0 mm 0 mps 623 mmHg 96%
03:00 +14°C° 0 mm 0 mps 623 mmHg 95%
04:00 +14°C° 0 mm 0 mps 622 mmHg 95%
05:00 +14°C° 0 mm 0 mps 623 mmHg 95%
06:00 +14°C° 0 mm 0 mps 623 mmHg 94%
07:00 +14°C° 0 mm 0 mps 623 mmHg 94%
08:00 +19°C° 0 mm 1 mps 625 mmHg 84%
09:00 +21°C° 0 mm 1 mps 626 mmHg 75%
10:00 +24°C° 0 mm 1 mps 627 mmHg 66%
11:00 +24°C° 0.8 mm 1 mps 626 mmHg 68%
12:00 +24°C° 0.8 mm 1 mps 626 mmHg 70%
13:00 +24°C° 0.8 mm 1 mps 625 mmHg 72%
14:00 +24°C° 2 mm 1 mps 624 mmHg 77%
15:00 +23°C° 2 mm 1 mps 624 mmHg 82%
16:00 +22°C° 2 mm 1 mps 623 mmHg 86%
17:00 +21°C° 1.4 mm 1 mps 623 mmHg 90%
18:00 +20°C° 1.4 mm 1 mps 623 mmHg 93%
19:00 +19°C° 1.4 mm 1 mps 623 mmHg 96%
20:00 +18°C° 0.5 mm 1 mps 624 mmHg 96%
21:00 +16°C° 0.5 mm 0 mps 624 mmHg 97%
22:00 +15°C° 0.5 mm 0 mps 624 mmHg 97%
23:00 +15°C° 0 mm 0 mps 624 mmHg 97%
Show more